AUA591 LOWW-LIBD

Flight info

Callsign AUA591
Flight time N/A
Altitude 37000
Route STEIN DCT NOHAT DCT KOPRY DCT DIXUM DCT ORAKA DCT AIOSA DCT BANAV
Aircraft A320/M-SDE3FGHIRWY/LB1

Departure

Time N/A
Airport Vienna International Airport (LOWW)

Arrival

Time 2026-04-23 11:43
Airport Bari Karol Wojtyła International Airport (LIBD)
Time Latitude Longitude Altitude Speed Heading
2026-04-23 10:51 46.10704 16.97528 35893 ft 471 kts 172°
2026-04-23 10:51 46.07410 16.97810 36064 ft 471 kts 172°
2026-04-23 10:51 46.04157 16.98092 36224 ft 471 kts 172°
2026-04-23 10:51 46.00881 16.98380 36400 ft 471 kts 172°
2026-04-23 10:52 45.97630 16.98668 36586 ft 472 kts 172°
2026-04-23 10:52 45.94379 16.98959 36750 ft 472 kts 172°
2026-04-23 10:52 45.91106 16.99251 36913 ft 473 kts 172°
2026-04-23 10:52 45.87801 16.99546 37051 ft 474 kts 172°
2026-04-23 10:53 45.84485 16.99842 37161 ft 475 kts 172°
2026-04-23 10:53 45.81220 17.00133 37165 ft 475 kts 172°
2026-04-23 10:53 45.75118 17.00675 37165 ft 475 kts 172°
2026-04-23 10:54 45.68557 17.01257 37162 ft 474 kts 172°
2026-04-23 10:54 45.61958 17.01840 37165 ft 474 kts 172°
2026-04-23 10:55 45.55374 17.02425 37167 ft 474 kts 172°
2026-04-23 10:55 45.48811 17.03005 37168 ft 474 kts 172°
2026-04-23 10:56 45.42229 17.03583 37173 ft 474 kts 172°
2026-04-23 10:56 45.35673 17.04157 37169 ft 473 kts 172°
2026-04-23 10:57 45.29099 17.04734 37165 ft 472 kts 172°
2026-04-23 10:57 45.22570 17.05305 37168 ft 472 kts 172°
2026-04-23 10:58 45.16007 17.05878 37171 ft 472 kts 172°
2026-04-23 10:58 45.09487 17.06445 37169 ft 473 kts 172°
2026-04-23 10:59 45.02916 17.07015 37171 ft 472 kts 172°
2026-04-23 10:59 44.96397 17.07577 37169 ft 471 kts 172°
2026-04-23 11:00 44.89865 17.08142 37166 ft 471 kts 172°
2026-04-23 11:00 44.83336 17.08704 37168 ft 471 kts 172°
2026-04-23 11:01 44.76790 17.09268 37167 ft 471 kts 172°
2026-04-23 11:01 44.73773 17.09527 37180 ft 471 kts 172°
2026-04-23 11:02 44.67209 17.10092 37158 ft 472 kts 172°
2026-04-23 11:02 44.60648 17.10652 37153 ft 472 kts 172°
2026-04-23 11:03 44.54134 17.11207 37145 ft 472 kts 172°
2026-04-23 11:03 44.47579 17.11765 37135 ft 472 kts 172°
2026-04-23 11:04 44.41028 17.12321 37126 ft 472 kts 172°
2026-04-23 11:04 44.34475 17.12876 37128 ft 472 kts 172°
2026-04-23 11:05 44.27918 17.13431 37093 ft 473 kts 172°
2026-04-23 11:05 44.21368 17.13984 37100 ft 473 kts 171°
2026-04-23 11:06 44.11552 17.14811 37100 ft 473 kts 172°
2026-04-23 11:07 44.04956 17.15365 37067 ft 474 kts 172°
2026-04-23 11:07 43.98401 17.15912 37104 ft 474 kts 171°
2026-04-23 11:08 43.91835 17.16460 37097 ft 474 kts 171°
2026-04-23 11:08 43.85456 17.16992 37083 ft 474 kts 172°
2026-04-23 11:09 43.78881 17.17542 37116 ft 475 kts 172°
2026-04-23 11:09 43.74019 17.17943 37105 ft 476 kts 172°
2026-04-23 11:10 43.67979 17.18442 37111 ft 475 kts 172°
2026-04-23 11:10 43.61528 17.18975 37089 ft 476 kts 172°
2026-04-23 11:11 43.54932 17.19516 37114 ft 476 kts 172°
2026-04-23 11:11 43.48342 17.19965 37108 ft 477 kts 175°
2026-04-23 11:12 43.41701 17.19987 37109 ft 478 kts 175°
2026-04-23 11:12 43.35062 17.19996 37106 ft 477 kts 176°
2026-04-23 11:13 43.28418 17.20005 37094 ft 477 kts 176°
2026-04-23 11:13 43.21790 17.20014 37097 ft 477 kts 176°
2026-04-23 11:14 43.15154 17.20021 37089 ft 477 kts 176°
2026-04-23 11:14 43.08523 17.20027 37090 ft 477 kts 176°
2026-04-23 11:15 43.01914 17.20037 37095 ft 478 kts 176°
2026-04-23 11:15 42.95264 17.20049 37081 ft 478 kts 176°
2026-04-23 11:15 42.91956 17.20054 37207 ft 477 kts 176°
2026-04-23 11:16 42.88667 17.20055 37053 ft 478 kts 176°
2026-04-23 11:16 42.85341 17.20053 36632 ft 477 kts 176°
2026-04-23 11:16 42.81998 17.20052 36024 ft 477 kts 175°
2026-04-23 11:16 42.78684 17.20050 35356 ft 480 kts 175°
2026-04-23 11:17 42.75388 17.20047 34667 ft 482 kts 174°
2026-04-23 11:17 42.72022 17.20050 33874 ft 483 kts 174°
2026-04-23 11:17 42.68662 17.20057 33052 ft 485 kts 174°
2026-04-23 11:17 42.65330 17.20054 32260 ft 485 kts 174°
2026-04-23 11:18 42.61965 17.20054 31628 ft 480 kts 174°
2026-04-23 11:18 42.58633 17.20056 31123 ft 474 kts 173°
2026-04-23 11:18 42.55376 17.20056 30618 ft 467 kts 173°
2026-04-23 11:18 42.52184 17.20173 30112 ft 458 kts 170°
2026-04-23 11:19 42.49046 17.20419 29604 ft 452 kts 169°
2026-04-23 11:19 42.45900 17.20672 29104 ft 446 kts 169°
2026-04-23 11:19 42.42863 17.20915 28625 ft 440 kts 169°
2026-04-23 11:19 42.39830 17.21155 28143 ft 435 kts 169°
2026-04-23 11:20 42.36844 17.21392 27670 ft 429 kts 169°
2026-04-23 11:20 42.33867 17.21629 27189 ft 424 kts 169°
2026-04-23 11:20 42.30942 17.21858 26714 ft 420 kts 169°
2026-04-23 11:20 42.28052 17.22087 26244 ft 415 kts 169°
2026-04-23 11:21 42.25191 17.22312 25784 ft 411 kts 169°
2026-04-23 11:21 42.22333 17.22536 25310 ft 408 kts 169°
2026-04-23 11:21 42.19530 17.22757 24841 ft 404 kts 170°
2026-04-23 11:21 42.16740 17.22978 24375 ft 401 kts 170°
2026-04-23 11:22 42.13977 17.23195 23909 ft 398 kts 170°
2026-04-23 11:22 42.11227 17.23409 23455 ft 395 kts 170°
2026-04-23 11:22 42.08505 17.23623 23000 ft 392 kts 170°
2026-04-23 11:22 42.05789 17.23835 22537 ft 390 kts 170°
2026-04-23 11:23 42.03096 17.24046 22082 ft 388 kts 170°
2026-04-23 11:23 42.00412 17.24256 21631 ft 386 kts 171°
2026-04-23 11:23 41.97743 17.24464 21182 ft 383 kts 171°
2026-04-23 11:23 41.95092 17.24611 20725 ft 384 kts 177°
2026-04-23 11:24 41.92458 17.23862 20251 ft 392 kts 200°
2026-04-23 11:24 41.90145 17.21947 19808 ft 394 kts 219°
2026-04-23 11:24 41.88097 17.19494 19369 ft 392 kts 222°
2026-04-23 11:24 41.86113 17.17024 18926 ft 389 kts 222°
2026-04-23 11:25 41.84151 17.14605 18485 ft 387 kts 222°
2026-04-23 11:25 41.82153 17.12182 18037 ft 384 kts 221°
2026-04-23 11:25 41.80175 17.09814 17599 ft 382 kts 221°
2026-04-23 11:25 41.78213 17.07480 17165 ft 379 kts 221°
2026-04-23 11:26 41.76233 17.05133 16728 ft 377 kts 221°
2026-04-23 11:26 41.74262 17.02844 16284 ft 374 kts 217°
2026-04-23 11:26 41.72091 17.01017 15847 ft 370 kts 204°
2026-04-23 11:26 41.69681 16.99802 15407 ft 366 kts 195°
2026-04-23 11:27 41.67244 16.98880 14972 ft 364 kts 193°
2026-04-23 11:27 41.64817 16.98008 14536 ft 361 kts 193°
2026-04-23 11:27 41.62421 16.97135 14117 ft 359 kts 194°
2026-04-23 11:27 41.60023 16.96242 13686 ft 356 kts 194°
2026-04-23 11:28 41.57645 16.95346 13254 ft 354 kts 194°
2026-04-23 11:28 41.55280 16.94450 12817 ft 351 kts 194°
2026-04-23 11:28 41.52938 16.93535 12390 ft 349 kts 197°
2026-04-23 11:28 41.50662 16.92461 11960 ft 347 kts 199°
2026-04-23 11:29 41.48424 16.91349 11521 ft 345 kts 200°
2026-04-23 11:29 41.46197 16.90234 11108 ft 342 kts 200°
2026-04-23 11:29 41.43976 16.89123 10839 ft 333 kts 200°
2026-04-23 11:29 41.41848 16.88061 10636 ft 322 kts 200°
2026-04-23 11:30 41.39781 16.87031 10451 ft 312 kts 200°
2026-04-23 11:30 41.37793 16.86043 10178 ft 307 kts 200°
2026-04-23 11:30 41.35788 16.85048 9780 ft 306 kts 200°
2026-04-23 11:30 41.33809 16.84069 9393 ft 304 kts 200°
2026-04-23 11:31 41.31832 16.83090 9017 ft 303 kts 200°
2026-04-23 11:31 41.29899 16.82015 8624 ft 302 kts 212°
2026-04-23 11:31 41.28379 16.80178 8260 ft 294 kts 238°
2026-04-23 11:31 41.27334 16.77901 8098 ft 283 kts 244°
2026-04-23 11:32 41.26383 16.75633 7935 ft 275 kts 244°
2026-04-23 11:32 41.25470 16.73468 7698 ft 270 kts 244°
2026-04-23 11:32 41.24534 16.71297 7382 ft 268 kts 244°
2026-04-23 11:32 41.23604 16.69177 7071 ft 267 kts 243°
2026-04-23 11:33 41.22662 16.67051 6771 ft 265 kts 243°
2026-04-23 11:33 41.21733 16.64963 6459 ft 264 kts 243°
2026-04-23 11:33 41.20850 16.62856 6144 ft 261 kts 248°
2026-04-23 11:33 41.20128 16.60649 5885 ft 255 kts 253°
2026-04-23 11:34 41.19508 16.58487 5738 ft 247 kts 255°
2026-04-23 11:34 41.18920 16.56398 5593 ft 240 kts 255°
2026-04-23 11:34 41.18343 16.54344 5411 ft 234 kts 255°
2026-04-23 11:34 41.17779 16.52353 5136 ft 233 kts 255°
2026-04-23 11:35 41.17209 16.50351 4847 ft 232 kts 255°
2026-04-23 11:35 41.16657 16.48415 4603 ft 230 kts 255°
2026-04-23 11:35 41.16092 16.46438 4410 ft 229 kts 255°
2026-04-23 11:35 41.15515 16.44525 4280 ft 223 kts 247°
2026-04-23 11:36 41.14441 16.43097 4118 ft 225 kts 205°
2026-04-23 11:36 41.12923 16.42859 3992 ft 220 kts 165°
2026-04-23 11:36 41.11486 16.43545 4045 ft 220 kts 155°
2026-04-23 11:36 41.10081 16.44341 4018 ft 220 kts 155°
2026-04-23 11:37 41.08668 16.45137 3982 ft 219 kts 151°
2026-04-23 11:37 41.07582 16.46419 3753 ft 205 kts 112°
2026-04-23 11:37 41.07418 16.48183 3371 ft 191 kts 75°
2026-04-23 11:37 41.07674 16.49899 3240 ft 191 kts 72°
2026-04-23 11:38 41.07893 16.51637 3143 ft 193 kts 76°
2026-04-23 11:38 41.08013 16.53427 3038 ft 194 kts 80°
2026-04-23 11:38 41.08155 16.55198 2966 ft 192 kts 73°
2026-04-23 11:38 41.08463 16.56889 2872 ft 190 kts 67°
2026-04-23 11:39 41.08894 16.58552 2633 ft 188 kts 64°
2026-04-23 11:39 41.09348 16.60130 2385 ft 182 kts 63°
2026-04-23 11:39 41.09780 16.61644 2132 ft 169 kts 63°
2026-04-23 11:39 41.10174 16.63043 1932 ft 157 kts 62°
2026-04-23 11:40 41.10557 16.64395 1732 ft 156 kts 63°
2026-04-23 11:40 41.10921 16.65696 1525 ft 142 kts 63°
2026-04-23 11:40 41.11248 16.66860 1320 ft 131 kts 63°
2026-04-23 11:40 41.11571 16.68009 1145 ft 132 kts 63°
2026-04-23 11:41 41.11896 16.69129 1006 ft 130 kts 65°
2026-04-23 11:41 41.12203 16.70259 794 ft 131 kts 63°
2026-04-23 11:41 41.12534 16.71399 644 ft 135 kts 64°
2026-04-23 11:41 41.12860 16.72565 470 ft 134 kts 65°
2026-04-23 11:42 41.13178 16.73687 290 ft 129 kts 66°
2026-04-23 11:42 41.13490 16.74789 178 ft 120 kts 67°
2026-04-23 11:42 41.13735 16.75635 154 ft 74 kts 69°
2026-04-23 11:42 41.13893 16.76198 142 ft 59 kts 70°
2026-04-23 11:43 41.13991 16.76544 135 ft 13 kts 69°
2026-04-23 11:43 41.13999 16.76638 133 ft 11 kts 114°
2026-04-23 11:43 41.13964 16.76743 132 ft 13 kts 114°
2026-04-23 11:43 41.13927 16.76833 130 ft 8 kts 146°
2026-04-23 11:44 41.13877 16.76805 131 ft 8 kts 248°
2026-04-23 11:44 41.13854 16.76725 133 ft 10 kts 249°
2026-04-23 11:44 41.13825 16.76624 135 ft 12 kts 250°
2026-04-23 11:44 41.13782 16.76550 137 ft 11 kts 184°
2026-04-23 11:45 41.13692 16.76545 138 ft 14 kts 201°
2026-04-23 11:45 41.13634 16.76453 140 ft 13 kts 249°
2026-04-23 11:45 41.13616 16.76390 141 ft 4 kts 248°
2026-04-23 11:45 41.13596 16.76374 142 ft 4 kts 169°
2026-04-23 11:46 41.13564 16.76388 142 ft 5 kts 159°
2026-04-23 11:46 41.13547 16.76396 142 ft 1 kts 159°
2026-04-23 11:46 41.13543 16.76399 142 ft 0 kts 159°
2026-04-23 11:46 41.13540 16.76400 143 ft 0 kts 159°